Wind_Speed
45 45 44 44 45 46 47 47 49 49 50 51 50 51 50 51 52 52 52 53 54 53 53 54 54 54 54 54 55 56 56 57 57 57 57 58 58 60 62 63 64 64 64
44 44 44 44 44 45 46 46 48 48 48 48 49 48 48 49 50 50 51 51 53 53 53 53 53 53 53 53 54 54 55 56 57 57 57 57 58 59 60 61 63 63 63
43 43 44 44 45 45 45 45 47 47 47 47 47 46 46 47 48 49 49 50 51 53 53 53 53 53 53 52 53 53 54 55 57 57 57 57 58 59 59 60 62 63 63
42 43 43 44 44 44 45 45 45 45 45 46 45 45 45 45 46 47 47 48 50 52 53 54 54 54 54 54 54 54 54 54 55 56 56 57 57 58 59 60 61 62 63
42 42 43 43 43 44 44 44 44 44 43 43 43 44 44 44 45 46 46 47 48 50 51 53 53 54 55 55 55 55 54 53 54 54 55 56 56 57 58 59 60 61 62
42 41 42 42 42 43 43 43 42 41 41 41 42 43 43 44 44 45 44 45 46 48 49 51 53 53 53 54 55 55 55 54 54 54 55 55 56 56 56 56 58 60 61
41 41 40 40 41 41 40 40 39 40 40 40 41 42 43 43 44 44 44 44 44 45 47 49 51 52 52 53 54 54 54 54 54 54 54 54 55 56 56 56 56 57 59
40 40 39 39 39 38 38 38 39 39 39 40 40 40 41 42 43 44 44 44 44 44 45 47 49 51 52 52 53 54 53 53 53 54 54 54 54 55 55 56 56 56 57
40 39 39 38 38 38 38 38 38 39 39 39 39 40 39 40 41 43 43 43 43 43 43 45 46 48 50 51 52 52 53 52 52 53 53 53 54 54 55 56 56 56 56
39 38 38 38 38 37 37 38 38 38 38 38 38 38 38 38 39 40 41 41 41 42 42 43 44 45 47 49 50 50 50 51 51 51 51 51 51 52 52 53 54 54 55
37 37 37 38 38 38 38 38 38 38 38 37 37 37 36 36 37 38 38 38 39 39 41 42 42 43 44 45 47 48 48 49 49 49 50 50 50 50 51 51 52 53 52
38 38 38 38 38 38 38 37 37 37 36 36 35 34 34 33 33 33 35 36 36 37 38 39 41 42 43 43 44 45 45 46 47 48 48 49 49 48 49 49 50 51 51
37 37 37 37 37 37 36 36 35 35 34 33 33 32 32 31 31 31 32 33 35 36 36 37 38 39 40 41 42 43 43 43 43 45 46 46 46 46 47 48 49 49 50
36 35 35 35 35 35 35 34 33 32 31 31 30 30 30 30 30 31 31 31 32 33 34 34 35 36 37 38 40 41 41 41 41 42 42 43 44 45 45 46 47 47 48
34 33 33 33 32 32 32 32 30 30 29 29 29 29 29 29 29 29 29 29 30 30 31 32 33 33 34 35 37 38 39 40 40 40 40 40 41 42 43 43 44 45 46
32 32 32 32 31 30 29 29 28 28 28 28 27 27 27 28 27 28 28 29 29 29 29 29 30 31 32 33 34 35 36 38 38 39 39 39 39 40 40 40 41 42 44
31 31 31 30 29 28 27 27 27 27 28 27 27 26 26 26 27 27 28 28 28 29 29 29 29 29 30 31 32 33 35 36 37 38 38 37 37 38 39 40 40 41 41
30 29 28 27 27 27 26 26 27 27 27 27 27 26 26 26 26 26 27 27 27 27 28 28 28 28 28 29 30 31 32 33 35 36 36 36 37 38 38 39 39 39 39
28 27 27 26 26 26 26 26 26 26 26 26 26 26 25 25 25 25 25 26 26 26 27 27 27 27 26 27 27 28 29 30 31 32 33 35 36 36 36 36 37 37 37
27 26 25 25 25 25 25 25 25 25 25 25 24 24 24 23 24 24 24 24 25 25 25 25 25 24 24 24 25 26 27 28 28 30 31 31 32 32 33 33 33 34 35
26 25 25 24 25 25 25 25 24 24 23 23 22 22 22 22 22 22 22 22 23 23 23 23 23 23 23 22 23 24 25 26 27 27 28 28 29 30 31 32 32 32 32
24 24 24 25 25 24 24 24 23 22 22 21 21 21 21 21 21 21 21 21 21 21 21 20 21 21 21 21 21 22 23 24 25 26 26 27 27 28 28 28 29 30 31
23 23 24 24 24 23 22 22 22 21 20 20 20 20 20 20 20 20 20 20 20 19 19 19 19 19 19 20 20 20 21 22 22 23 24 24 25 25 26 27 27 28 29
22 22 22 22 22 21 21 21 20 19 19 19 19 19 19 19 19 19 19 19 19 19 19 18 18 18 18 18 19 19 19 20 21 21 21 21 22 23 24 24 25 26 26
22 22 21 21 20 20 20 20 19 18 18 18 18 18 18 18 18 18 18 18 18 17 17 17 16 16 17 17 18 19 19 19 19 20 20 20 21 22 23 23 24 24 25
21 21 20 20 20 19 19 19 18 18 17 17 17 17 17 17 17 17 17 17 16 16 16 16 16 15 15 16 16 16 17 17 18 18 19 19 19 20 21 21 22 23 24
Wind_Direction
283 282 281 281 280 279 278 277 276 276 275 274 273 272 269 266 264 262 260 258 257 257 256 256 256 256 255 255 255 255 255 254 253 252 252 251 251 250 249 248 246 246 246
284 282 281 282 282 282 280 279 278 277 277 275 274 272 269 267 264 262 261 259 258 257 255 255 255 254 254 255 255 255 255 254 254 253 252 251 250 250 250 249 247 246 246
285 284 283 283 283 283 282 281 280 278 277 275 275 272 270 267 264 263 261 260 258 257 255 255 254 254 253 254 254 255 254 254 254 253 252 251 250 250 249 249 248 248 247
287 285 284 284 283 283 283 283 282 279 278 275 274 272 270 268 266 264 263 261 259 257 256 255 254 253 253 253 254 254 255 254 254 254 253 251 251 251 250 249 249 249 248
288 287 286 285 284 284 284 283 282 281 278 276 273 271 270 268 267 266 264 262 260 258 257 255 254 254 254 254 255 255 255 255 255 254 254 252 252 252 252 251 250 249 249
289 287 287 286 286 286 285 283 282 281 279 277 274 272 270 269 268 267 266 264 262 260 258 256 255 254 254 254 255 255 256 256 255 255 254 254 253 253 253 253 251 249 249
289 289 288 288 288 287 285 283 282 281 280 279 277 274 272 270 269 268 267 266 264 261 259 257 255 253 254 254 254 254 255 256 256 256 255 255 255 253 253 253 252 251 249
290 289 289 289 288 287 285 284 283 281 280 279 278 277 274 271 269 268 267 267 265 263 260 258 256 255 254 254 254 254 255 255 256 256 256 256 256 255 254 253 252 251 249
292 291 289 288 288 287 286 285 284 282 281 281 279 278 275 273 271 269 268 267 266 264 262 260 258 256 255 254 254 254 254 255 255 256 255 256 256 255 255 253 252 251 250
293 291 289 288 288 287 287 285 283 282 282 282 281 279 276 274 272 270 269 268 267 266 264 262 260 258 257 255 254 254 254 253 253 254 255 255 254 254 254 253 252 251 251
293 291 290 290 289 287 286 285 284 283 283 282 282 280 278 276 273 271 270 269 268 267 266 263 262 260 259 257 254 254 254 254 253 253 253 253 253 253 253 252 252 251 250
293 292 291 290 289 287 286 284 284 283 283 282 282 280 279 277 275 273 271 270 269 268 267 265 263 261 259 257 256 255 255 254 253 252 251 252 252 252 252 252 251 250 250
294 293 292 290 289 289 287 285 284 283 282 282 280 280 278 277 276 275 273 272 271 270 269 267 265 262 259 256 256 254 253 253 253 252 252 251 250 250 251 251 251 250 249
296 295 293 291 290 289 289 286 283 282 281 281 280 279 277 276 276 276 275 273 272 271 270 269 266 263 260 258 256 255 253 253 253 252 252 251 251 250 250 251 251 251 250
298 297 296 295 293 291 289 286 283 281 280 279 279 279 277 275 275 275 276 274 273 272 271 271 268 265 263 260 257 256 254 253 252 252 251 250 251 251 251 252 252 251 251
299 299 298 297 295 293 291 288 284 280 279 279 280 279 277 276 275 275 275 275 275 273 272 271 269 267 265 262 260 258 256 253 252 251 250 250 250 251 252 252 252 251 251
300 299 299 297 296 295 293 289 285 284 283 282 282 281 279 278 277 276 275 275 276 274 273 273 271 269 267 264 262 260 257 254 251 251 250 250 251 251 252 251 252 252 251
302 300 299 298 297 296 295 291 287 284 284 284 284 284 283 281 280 279 277 275 275 275 275 275 273 271 269 266 264 260 257 255 253 251 251 250 250 252 253 252 252 252 250
302 300 300 299 298 297 296 293 290 287 284 283 283 284 285 284 282 282 280 277 276 276 276 275 274 272 270 268 264 260 256 254 254 253 251 251 251 252 252 252 252 252 251
302 300 299 299 299 298 297 296 292 289 286 284 284 284 284 283 283 283 282 279 278 278 277 275 273 271 269 267 264 260 257 255 254 253 253 252 251 250 249 249 250 250 250
302 301 300 299 300 299 298 296 294 291 287 285 285 284 282 282 284 284 284 282 280 280 279 275 270 267 266 265 264 261 258 256 256 254 253 251 250 250 250 249 249 249 249
303 302 302 302 301 300 298 296 294 291 288 287 287 286 284 285 285 285 284 283 282 280 278 274 270 268 265 264 263 260 258 256 256 255 253 250 250 249 249 249 249 248 249
306 305 305 304 303 302 300 298 295 291 289 288 288 287 286 286 286 286 284 281 281 282 280 275 271 269 267 263 261 259 258 256 254 253 252 250 248 248 248 248 249 249 249
308 307 307 306 305 304 303 301 297 293 291 290 288 287 287 287 288 288 285 281 281 281 280 277 274 270 266 263 260 260 259 256 252 249 248 246 246 246 248 249 249 248 248
307 307 309 309 310 308 306 303 300 296 293 292 290 288 287 287 288 288 285 283 283 281 279 278 276 271 267 264 262 261 259 257 252 248 247 248 248 248 250 251 250 249 248
308 308 308 309 310 309 307 305 302 299 295 294 293 291 288 287 287 287 287 286 284 280 278 278 276 273 268 266 264 261 257 255 253 253 253 253 251 250 250 251 249 247 246
Height
5568 5565 5562 5560 5557 5554 5552 5550 5548 5546 5544 5542 5541 5540 5539 5539 5539 5540 5541 5542 5544 5546 5548 5550 5552 5554 5557 5559 5561 5563 5566 5569 5573 5578 5580 5583 5586 5590 5593 5597 5602 5606 5612
5555 5552 5550 5547 5544 5541 5539 5536 5534 5532 5529 5527 5526 5525 5525 5524 5525 5525 5526 5527 5528 5530 5532 5534 5537 5539 5541 5544 5546 5548 5550 5553 5556 5561 5564 5567 5570 5573 5576 5580 5584 5589 5594
5543 5540 5537 5534 5531 5528 5525 5523 5520 5518 5515 5513 5512 5511 5511 5510 5510 5511 5511 5512 5513 5515 5517 5519 5521 5523 5526 5528 5530 5533 5535 5537 5540 5543 5547 5551 5554 5557 5560 5563 5567 5571 5576
5530 5527 5524 5521 5518 5515 5512 5509 5507 5504 5502 5500 5499 5498 5497 5497 5496 5496 5497 5497 5498 5500 5501 5503 5506 5508 5510 5513 5515 5517 5519 5522 5524 5527 5531 5534 5537 5540 5543 5546 5550 5554 5559
5519 5515 5512 5508 5505 5502 5499 5496 5493 5491 5489 5487 5486 5485 5484 5483 5483 5482 5482 5483 5484 5485 5486 5488 5490 5492 5494 5497 5499 5502 5504 5506 5509 5511 5514 5517 5521 5523 5526 5529 5533 5537 5542
5506 5503 5499 5496 5492 5489 5486 5483 5480 5478 5476 5475 5473 5472 5471 5470 5470 5469 5468 5468 5469 5470 5471 5473 5474 5477 5479 5481 5484 5486 5488 5491 5493 5495 5498 5501 5505 5507 5510 5512 5516 5520 5526
5495 5491 5487 5484 5480 5477 5474 5471 5469 5467 5464 5462 5461 5459 5459 5458 5457 5456 5455 5455 5455 5456 5457 5458 5459 5462 5463 5466 5468 5470 5473 5475 5477 5480 5483 5485 5489 5492 5494 5497 5499 5502 5508
5483 5479 5475 5472 5468 5465 5462 5460 5457 5455 5453 5451 5449 5447 5446 5445 5443 5442 5442 5441 5442 5442 5442 5443 5445 5446 5448 5450 5452 5455 5457 5460 5463 5465 5468 5471 5472 5475 5477 5480 5483 5486 5491
5471 5467 5463 5460 5457 5454 5451 5448 5446 5443 5441 5438 5436 5435 5433 5432 5430 5429 5428 5428 5428 5428 5429 5429 5430 5432 5433 5435 5437 5440 5443 5445 5447 5449 5452 5454 5456 5459 5461 5463 5467 5470 5475
5459 5456 5452 5449 5446 5443 5440 5437 5434 5431 5429 5427 5424 5422 5421 5419 5418 5416 5415 5415 5415 5416 5416 5416 5417 5417 5418 5419 5421 5423 5427 5430 5432 5434 5436 5439 5441 5443 5446 5448 5451 5455 5459
5448 5444 5441 5437 5434 5431 5428 5425 5422 5420 5417 5415 5413 5410 5409 5407 5406 5404 5403 5402 5402 5403 5403 5403 5403 5403 5404 5405 5406 5409 5412 5414 5416 5419 5421 5423 5426 5429 5431 5434 5437 5440 5444
5437 5433 5429 5425 5422 5419 5416 5413 5410 5408 5405 5403 5401 5399 5397 5396 5394 5393 5392 5391 5390 5390 5390 5390 5390 5390 5391 5392 5393 5396 5398 5399 5401 5404 5406 5409 5412 5415 5417 5419 5422 5425 5429
5426 5421 5417 5413 5410 5407 5404 5401 5399 5396 5394 5392 5390 5388 5387 5385 5384 5383 5382 5381 5380 5379 5379 5378 5378 5378 5378 5379 5381 5383 5384 5386 5388 5390 5393 5395 5398 5400 5403 5405 5408 5410 5414
5415 5411 5407 5403 5399 5396 5393 5390 5388 5386 5384 5382 5380 5379 5377 5375 5374 5373 5372 5371 5369 5368 5368 5367 5366 5366 5366 5367 5369 5370 5372 5374 5375 5378 5380 5382 5385 5387 5389 5392 5394 5397 5400
5405 5401 5397 5393 5389 5386 5382 5380 5377 5376 5374 5373 5371 5370 5368 5367 5365 5364 5362 5361 5360 5359 5358 5357 5356 5356 5356 5356 5357 5358 5360 5362 5363 5366 5368 5370 5372 5374 5377 5379 5381 5383 5387
5396 5391 5387 5383 5380 5376 5373 5370 5368 5367 5365 5364 5362 5360 5359 5358 5356 5355 5353 5352 5350 5349 5348 5347 5347 5346 5346 5346 5346 5347 5349 5350 5352 5354 5356 5358 5361 5363 5365 5367 5369 5371 5374
5387 5383 5379 5375 5371 5368 5365 5362 5360 5358 5356 5355 5353 5352 5350 5349 5347 5346 5345 5343 5342 5340 5339 5339 5338 5337 5336 5336 5336 5337 5338 5339 5341 5343 5345 5347 5349 5351 5353 5355 5357 5359 5361
5378 5374 5371 5367 5364 5360 5357 5355 5352 5351 5349 5347 5345 5344 5342 5340 5339 5337 5336 5335 5333 5332 5331 5330 5329 5328 5327 5327 5327 5327 5328 5329 5330 5332 5334 5336 5338 5340 5341 5344 5346 5348 5350
5370 5367 5363 5360 5356 5353 5350 5347 5345 5343 5341 5339 5338 5336 5334 5333 5331 5329 5328 5326 5325 5324 5322 5321 5320 5319 5319 5318 5318 5318 5319 5320 5321 5322 5323 5325 5327 5329 5331 5333 5335 5337 5339
5363 5359 5356 5353 5349 5346 5343 5340 5338 5336 5333 5332 5330 5329 5327 5325 5324 5322 5320 5319 5317 5316 5314 5313 5312 5311 5310 5310 5310 5310 5310 5311 5312 5313 5314 5316 5318 5319 5321 5323 5324 5326 5329
5356 5352 5349 5345 5342 5339 5336 5333 5331 5328 5326 5325 5323 5322 5320 5319 5317 5315 5313 5312 5310 5309 5307 5305 5304 5304 5303 5303 5302 5302 5302 5303 5304 5305 5306 5307 5309 5310 5312 5313 5315 5317 5319
5349 5345 5342 5339 5335 5332 5329 5327 5324 5322 5320 5318 5317 5315 5313 5312 5310 5308 5307 5305 5304 5302 5300 5299 5297 5297 5296 5296 5295 5295 5295 5296 5296 5297 5298 5299 5300 5302 5303 5305 5307 5309 5311
5342 5339 5335 5332 5329 5326 5323 5320 5318 5316 5314 5312 5310 5309 5307 5305 5304 5302 5300 5299 5297 5295 5294 5292 5291 5290 5289 5289 5288 5288 5288 5289 5289 5290 5291 5292 5293 5294 5296 5297 5299 5301 5302
5336 5333 5329 5326 5323 5319 5317 5314 5312 5309 5307 5306 5304 5303 5301 5299 5298 5296 5294 5293 5291 5290 5288 5286 5285 5284 5283 5283 5282 5282 5282 5282 5283 5283 5284 5285 5286 5287 5289 5290 5291 5293 5294
5330 5327 5324 5320 5317 5314 5311 5308 5306 5304 5302 5300 5298 5297 5295 5294 5292 5290 5289 5287 5285 5284 5282 5281 5280 5279 5278 5277 5277 5276 5276 5276 5276 5277 5278 5279 5280 5281 5282 5283 5284 5286 5287
5324 5321 5318 5315 5312 5309 5306 5304 5301 5299 5297 5295 5293 5291 5290 5288 5286 5285 5283 5281 5280 5278 5277 5276 5275 5273 5273 5272 5271 5271 5270 5270 5271 5271 5272 5273 5273 5274 5275 5276 5278 5279 5281